Regional Weather Roundup
Issued by NWS

Home | Current Version | Previous Version | Graphics & Text | Print | Product List | Glossary On
Versions: 1 2 3 4 5 6 7 8 9 10 11 12 13 14 15 16 17 18 19 20 21 22 23 24 25 26 27 28 29 30 31 32 33 34 35 36 37 38 39 40 41 42 43 44 45 46 47 48 49 50
000
ASUS43 KOAX 192010
RWRNE

WEATHER ROUNDUP FOR NEBRASKA
NATIONAL WEATHER SERVICE OMAHA NE
300 PM CDT SAT AUG 19 2017

NOTES: SATELLITE DATA IS BEING USED TO AUGMENT CLOUD COVER ABOVE
       12000 FEET.
       "FAIR" INDICATES FEW OR NO CLOUDS BELOW 12,000 FEET WITH NO
       SIGNIFICANT WEATHER AND/OR OBSTRUCTIONS TO VISIBILITY.


NEZ001>004-019>022-054>056-192100-
NEBRASKA PANHANDLE

CITY           SKY/WX    TMP DP  RH WIND       PRES   REMARKS
SCOTTSBLUFF    SUNNY     94  41  16 NW13      29.93F HX  90
ALLIANCE       SUNNY     91  47  21 W14       29.91F
CHADRON        SUNNY     94  33  11 E3        29.87F
GORDON         FAIR      92  42  17 NE7       29.89F
KIMBALL        SUNNY     93  43  17 NW14      30.02F
SIDNEY         CLOUDY    92  39  15 W10       29.97S
$$

NEZ057>060-069>072-079>082-192100-
SOUTHWEST NEBRASKA

CITY           SKY/WX    TMP DP  RH WIND       PRES   REMARKS
NORTH PLATTE   SUNNY     92  68  45 S20G26    29.87F HX  96
IMPERIAL       SUNNY     93  62  35 S14G24    29.91F HX  93
LEXINGTON      SUNNY     88  69  54 S17G23    29.90F HX  92
MCCOOK         SUNNY     95  65  37 S20G30    29.88F HX  97
OGALLALA       SUNNY     91  66  44 S10G16    29.90F HX  93
$$

NEZ005>010-023>029-035>040-094-192100-
NORTH CENTRAL NEBRASKA

CITY           SKY/WX    TMP DP  RH WIND       PRES   REMARKS
VALENTINE      SUNNY     95  58  28 SW12G21   29.81F HX  94
AINSWORTH      SUNNY     89  67  48 S18       29.84F HX  91
BROKEN BOW     SUNNY     91  68  46 S16G23    29.88F HX  95
O`NEILL        SUNNY     82  65  55 S12G21    29.88S
ORD            SUNNY     86  65  49 S17G28    29.87F
THEDFORD       SUNNY     93  64  37 SW16G25   29.87F HX  95
$$

NEZ041-046>049-061>064-073>077-083>087-192100-
SOUTH CENTRAL NEBRASKA

CITY           SKY/WX    TMP DP  RH WIND       PRES   REMARKS
GRAND ISLAND   SUNNY     85  71  63 SE17G24   29.92F HX  90
AURORA         SUNNY     84  68  58 S12       29.92F
HASTINGS       SUNNY     88  67  49 S14G20    29.92F HX  91
HEBRON         SUNNY     91  66  43 SE10      29.92F HX  93
HOLDREGE       SUNNY     87  67  52 S15       29.91F HX  90
KEARNEY        SUNNY     87  71  58 S16       29.91F HX  93
YORK           MOSUNNY   82  68  61 S14       29.92F
$$

NEZ011>018-030>034-042>045-192100-
NORTHEAST NEBRASKA

CITY           SKY/WX    TMP DP  RH WIND       PRES   REMARKS
NORFOLK        MOSUNNY   82  62  50 SE13      29.91F
ALBION         SUNNY     82  70  67 SE14G20   29.91F
BLAIR          SUNNY     83  59  43 E3        29.94F
COLUMBUS       SUNNY     81  67  62 SE8       29.93F
FREMONT        SUNNY     83  59  45 SE8       29.94F
TEKAMAH        SUNNY     82  64  54 S7        29.93F
WAYNE          SUNNY     80  67  64 SE10      29.92F
$$

NEZ050>053-065>068-078-088>093-192100-
SOUTHEAST NEBRASKA

CITY           SKY/WX    TMP DP  RH WIND       PRES   REMARKS
LINCOLN        SUNNY     86  63  45 SE12      29.93F
OMAHA EPPLEY   SUNNY     87  57  35 SE5       29.93F
BEATRICE       SUNNY     92  64  40 SE12      29.92F HX  93
FALLS CITY     SUNNY     87  64  46 SE8       29.93F
NEBRASKA CITY  SUNNY     85  62  46 SE7       29.95F
PLATTSMOUTH    SUNNY     84  59  42 SE7       29.94F
$$

NEZ044-045-051>053-067-192100-
OMAHA AREA

CITY           SKY/WX    TMP DP  RH WIND       PRES   REMARKS
OMAHA EPPLEY   SUNNY     87  57  35 SE5       29.93F
BLAIR          SUNNY     83  59  43 E3        29.94F
FREMONT        SUNNY     83  59  45 SE8       29.94F
MILLARD        SUNNY     87  58  37 SE8       29.93F
OFFUTT AFB     SUNNY     87  55  33 S10       29.93F
PLATTSMOUTH    SUNNY     84  59  42 SE7       29.94F
WAHOO          FAIR      83  65  54 SE8       29.93F
$$



USA.gov is the U.S. government's official web portal to all federal, state and local government web resources and services.